DateTimeUTC,F1_A11,F1_S11,BsB_S11,BsG_S11,BsR_S11,BbsB_S11,BbsG_S11,BbsR_S11,BaB_A11,BaG_A11,BaR_A11,Tu_S11,T_S11,Uu_S11,U_S11,P_S11,T1_A11
2021-04-06T15:00:00Z,00000200,21000000,,,,,,,0000.17,0000.09,-000.12,17.4,24.6,,00.0,0658.0,31.0
2021-04-06T15:01:00Z,00000200,21000000,,,,,,,0000.20,0000.18,0000.08,17.4,24.6,,00.0,0658.0,31.0
2021-04-06T15:02:00Z,00000200,21000000,,,,,,,0000.60,0000.42,0000.34,17.4,24.6,,00.0,0658.0,31.0
2021-04-06T15:03:00Z,00000200,61000000,,,,,,,0000.30,0000.26,-000.06,17.4,24.6,,00.0,0658.0,31.0
2021-04-06T15:04:00Z,00000200,41000000,0000.48,0000.38,-000.21,-000.17,0000.13,-000.19,0000.27,0000.42,0000.57,17.5,24.4,00.5,00.3,0658.8,31.0
2021-04-06T15:05:00Z,00000200,01000000,0000.53,0000.05,0000.03,0000.29,0000.06,0000.07,0000.27,0000.09,0000.29,17.6,24.4,00.6,00.4,0658.9,31.0
2021-04-06T15:06:00Z,00000200,01000000,-000.27,0000.16,0000.24,-000.32,0000.12,0000.14,0000.77,0000.76,-000.05,17.6,24.4,00.9,00.6,0658.9,31.0
2021-04-06T15:07:00Z,00000200,01000000,0001.14,0000.20,0000.08,0000.00,0000.08,0000.02,-000.02,-000.13,0000.07,17.6,24.3,00.9,00.6,0658.9,31.0
2021-04-06T15:08:00Z,00000200,01000000,0000.14,-000.08,0000.10,-000.09,-000.11,-000.27,-000.40,-000.07,0000.07,17.6,24.3,00.8,00.5,0658.9,31.0
2021-04-06T15:09:00Z,00000200,01000000,-000.30,0000.16,0000.24,0000.25,-000.28,-000.05,-000.23,-000.09,-000.33,17.6,24.3,00.7,00.5,0658.9,31.0
2021-04-06T15:10:00Z,00000200,01000000,0000.85,0000.04,0000.06,0000.20,0000.07,0000.21,-000.18,-000.79,-000.44,17.6,24.3,00.5,00.3,0658.9,31.0
2021-04-06T15:11:00Z,00000200,01000000,-000.17,0000.08,-000.14,0000.02,0000.28,-000.10,-000.27,0000.25,0000.05,17.6,24.3,00.6,00.4,0658.9,31.0
2021-04-06T15:12:00Z,00000200,01000000,0000.09,0000.01,0000.09,0000.09,0000.10,0000.03,0000.41,0000.07,0000.20,17.7,24.3,00.5,00.3,0658.9,31.0
2021-04-06T15:13:00Z,00000200,01000000,-000.35,0000.09,0000.22,0000.13,0000.37,-000.29,-000.28,0000.16,0000.31,17.7,24.3,00.5,00.3,0659.0,31.0
2021-04-06T15:14:00Z,00000200,01000000,0000.14,0000.21,0000.02,-000.03,0000.12,-000.01,0000.29,0000.17,-000.25,17.7,24.4,00.5,00.3,0659.0,31.0
2021-04-06T15:15:00Z,00000200,01000000,0000.25,0000.15,0000.19,-000.25,0000.10,-000.02,0000.34,0000.20,0000.44,17.7,24.3,00.7,00.4,0659.0,31.0
2021-04-06T15:16:00Z,00000200,01000000,0000.49,0000.12,0000.07,-000.06,0000.22,0000.04,0000.44,0000.50,0000.11,17.7,24.3,00.7,00.5,0659.0,31.0
2021-04-06T15:17:00Z,00000200,01000000,0000.83,-000.05,0000.29,0000.22,0000.23,0000.00,-000.18,-000.49,0000.04,17.7,24.3,00.6,00.4,0659.0,31.0
2021-04-06T15:18:00Z,00000200,01000000,0000.59,0000.00,0000.01,-000.05,-000.01,-000.07,-000.37,0000.26,-000.27,17.7,24.4,00.6,00.4,0659.0,31.0
2021-04-06T15:19:00Z,00000200,01000000,0000.71,0000.33,0000.09,0000.47,-000.08,0000.05,-000.09,-000.34,0000.08,17.7,24.4,00.5,00.3,0659.0,31.0
2021-04-06T15:20:00Z,00000200,01000000,0000.51,0000.14,0000.03,-000.18,0000.08,-000.18,0000.39,-000.07,-000.12,17.7,24.3,00.5,00.3,0659.0,31.0
2021-04-06T15:21:00Z,00000200,01000000,-000.12,0000.21,-000.25,0000.46,0000.01,0000.00,-000.44,-000.19,-000.10,17.7,24.3,00.4,00.3,0659.0,31.0
2021-04-06T15:22:00Z,00000200,01000000,0000.13,-000.06,0000.13,0000.20,0000.15,-000.26,-000.85,-000.69,-000.19,17.7,24.3,00.3,00.2,0659.0,31.0
2021-04-06T15:23:00Z,00000200,01000000,0000.02,0000.01,-000.24,0000.01,-000.05,-000.05,-000.43,-000.15,-000.42,17.7,24.3,00.1,00.1,0659.0,31.0
2021-04-06T15:24:00Z,00000200,01000000,0000.08,0000.04,0000.04,0000.07,0000.13,0000.05,-000.55,-000.85,-000.42,17.7,24.3,00.1,00.1,0659.0,31.0
2021-04-06T15:25:00Z,00000200,01000000,0000.09,0000.08,0000.02,0000.29,0000.08,-000.05,-000.27,-000.26,-000.01,17.7,24.3,00.1,00.1,0659.0,31.0
2021-04-06T15:26:00Z,00000200,01000000,0000.10,0000.26,-000.12,0000.06,-000.14,-000.01,0000.05,0000.20,-000.27,17.7,24.3,00.1,00.0,0659.0,31.0
2021-04-06T15:27:00Z,00000200,01000000,0000.29,-000.28,0000.12,0000.42,-000.09,-000.15,-000.17,-000.36,-000.01,17.7,24.3,00.0,00.0,0659.0,31.0
2021-04-06T15:28:00Z,00000200,01000000,0000.11,0000.24,0000.11,0000.07,0000.13,0000.10,0000.01,0000.20,0000.31,17.7,24.3,00.0,00.0,0659.1,31.0
2021-04-06T15:29:00Z,00000200,01000000,0000.27,0000.17,0000.09,-000.53,0000.03,-000.14,-000.63,-000.26,-000.42,17.7,24.3,00.0,00.0,0659.1,31.0
2021-04-06T15:30:00Z,00000200,01000000,0000.02,-000.03,-000.13,-000.10,0000.11,-000.04,-000.28,-000.44,-000.08,17.7,24.3,00.0,00.0,0659.1,31.0
2021-04-06T15:31:00Z,00000200,01000000,0000.22,0000.36,0000.12,-000.09,0000.09,0000.08,0000.13,0000.16,0000.14,17.7,24.3,00.0,00.0,0659.1,31.0
2021-04-06T15:32:00Z,00000200,01000000,0000.21,0000.17,-000.08,0000.14,0000.20,-000.22,0000.30,-000.02,0000.06,17.7,24.3,,00.0,0659.1,31.0
2021-04-06T15:33:00Z,00000200,01000000,0000.63,0000.18,0000.15,0000.06,0000.26,-000.08,0000.61,0000.39,0000.17,17.7,24.3,00.0,00.0,0659.0,31.0
2021-04-06T15:34:00Z,00000200,01000000,0000.47,0000.07,0000.21,-000.21,0000.17,-000.02,-000.20,0000.05,-000.09,17.7,24.4,00.0,00.0,0659.0,31.0
2021-04-06T15:35:00Z,00000200,01000000,0000.48,0000.14,0000.21,-000.15,0000.12,-000.25,0000.08,0000.10,0000.38,17.7,24.4,00.0,00.0,0659.0,31.0
2021-04-06T15:36:00Z,00000200,01000000,0000.05,0000.20,0000.11,-000.01,0000.06,-000.01,-000.04,0000.07,-000.00,17.7,24.4,00.0,00.0,0659.0,31.0
2021-04-06T15:37:00Z,00000200,01000000,0000.88,0000.16,0000.27,-000.22,0000.28,-000.27,-000.24,-000.16,-000.30,17.7,24.4,00.0,00.0,0659.0,31.0
2021-04-06T15:38:00Z,00000200,01000000,0000.71,0000.09,0000.31,-000.46,-000.03,-000.08,-000.34,-000.47,-000.19,17.7,24.3,,00.0,0659.0,31.1
2021-04-06T15:39:00Z,00000200,01000000,-000.03,0000.02,-000.41,0000.23,-000.09,0000.03,-000.30,-000.47,-000.24,17.7,24.3,,00.0,0659.0,31.0
2021-04-06T15:40:00Z,00000200,01000000,0000.43,0000.04,-000.07,-000.12,0000.14,-000.06,-000.27,0000.31,-000.10,17.7,24.4,,00.0,0659.0,31.0
2021-04-06T15:41:00Z,00000200,01000000,0000.23,0000.04,-000.10,0000.11,0000.10,-000.06,0000.25,-000.10,0000.06,17.7,24.4,,00.0,0659.0,31.0
2021-04-06T15:42:00Z,00000200,01000000,0000.00,0000.17,0000.05,-000.28,0000.00,-000.09,-000.11,0000.00,0000.08,17.7,24.4,,00.0,0659.0,31.0
2021-04-06T15:43:00Z,00000200,01000000,0000.53,0000.03,0000.18,0000.01,0000.07,0000.21,0000.20,0000.29,0000.36,17.7,24.3,,00.0,0659.0,31.0
2021-04-06T15:44:00Z,00000200,01000000,0000.10,0000.13,0000.27,0000.33,0000.18,0000.10,-000.19,-000.09,-000.27,17.7,24.3,,00.0,0659.0,31.0
2021-04-06T15:45:00Z,00000200,01000000,0000.40,0000.11,0000.13,0000.02,-000.01,0000.10,0000.42,0000.29,0000.02,17.7,24.3,,00.0,0659.0,31.0
2021-04-06T15:46:00Z,00000200,01000000,0000.34,0000.15,0000.06,0000.14,0000.21,0000.04,0000.31,0000.34,0000.31,17.7,24.3,,00.0,0658.9,31.0
2021-04-06T15:47:00Z,00000200,01000000,0000.29,0000.14,0000.11,0000.01,-000.09,0000.10,0000.69,0000.32,0000.51,17.7,24.3,,00.0,0659.0,31.0
2021-04-06T15:48:00Z,00000200,01000000,0000.06,-000.07,0000.08,0000.05,-000.13,0000.14,-000.16,-000.03,-000.07,17.7,24.3,00.0,00.0,0658.9,31.0
2021-04-06T15:49:00Z,00000200,01000000,0000.63,-000.02,0000.16,0000.52,0000.01,-000.26,0000.10,0000.10,0000.25,17.7,24.3,,00.0,0659.0,31.0
2021-04-06T15:50:00Z,00000200,01000000,0000.02,0000.06,0000.15,-000.01,0000.29,0000.05,-000.01,-000.05,-000.40,17.7,24.3,00.0,00.0,0658.9,31.0
2021-04-06T15:51:00Z,00000200,01000000,0000.25,-000.05,0000.15,-000.01,-000.18,0000.13,0000.04,0000.34,0000.31,17.7,24.4,,00.0,0658.9,31.0
2021-04-06T15:52:00Z,00000200,01000000,0000.49,0000.20,0000.28,0000.11,0000.04,0000.05,-000.34,-000.40,-000.41,17.7,24.3,,00.0,0658.9,31.0
2021-04-06T15:53:00Z,00000200,01000000,0000.28,0000.26,0000.20,0000.15,0000.09,0000.05,0000.29,-000.04,0000.49,17.7,24.3,00.0,00.0,0658.9,31.0
2021-04-06T15:54:00Z,00000200,01000000,0000.33,0000.10,0000.27,0000.23,0000.16,0000.22,-000.53,-000.28,-000.43,17.7,24.3,,00.0,0659.0,31.0
2021-04-06T15:55:00Z,00000200,01000000,0000.21,0000.08,0000.08,-000.49,0000.06,-000.21,0000.42,0000.49,0000.23,17.7,24.3,,00.0,0659.0,31.0
2021-04-06T15:56:00Z,00000200,01000000,-000.09,-000.01,0000.03,0000.07,0000.30,-000.17,0000.14,0000.25,0000.11,17.7,24.4,,00.0,0658.9,31.1
2021-04-06T15:57:00Z,00000200,41000000,,,,,,,0001.07,0000.50,0000.44,17.8,24.4,,00.0,0658.8,31.1
2021-04-06T15:58:00Z,00000200,61000000,,,,,,,-000.07,0000.09,0000.29,17.5,24.5,,00.0,0658.0,31.0
2021-04-06T15:59:00Z,00000200,21000000,,,,,,,0000.03,0000.27,0000.21,17.5,24.6,,00.0,0658.0,31.0
